Date,TemperatureHighF,TemperatureAvgF,TemperatureLowF,DewpointHighF,DewpointAvgF,DewpointLowF,HumidityHigh,HumidityAvg,HumidityLow,PressureMaxIn,PressureMinIn,WindSpeedMaxMPH,WindSpeedAvgMPH,GustSpeedMaxMPH,PrecipitationSumIn
2013-1-1,60,51,43,55,48,38,93,89,78,0.00,40.00,8,4,16,2.08
2013-1-2,43,41,39,38,36,34,86,80,73,0.00,40.00,6,3,13,0.01
2013-1-3,52,42,35,36,33,27,90,71,42,0.00,40.00,6,3,14,0.00
2013-1-4,50,43,37,35,31,28,84,65,45,0.00,40.00,5,3,12,0.00
2013-1-5,44,42,40,41,38,33,92,86,65,0.00,40.00,5,3,11,0.87
2013-1-6,57,45,36,41,39,34,91,81,52,0.00,40.00,7,2,15,0.15
2013-1-7,59,44,33,38,34,31,91,73,35,0.00,40.00,5,3,12,0.00
2013-1-8,61,51,42,59,46,36,92,83,66,0.00,40.00,7,4,13,0.28
2013-1-9,65,63,61,63,60,58,93,92,90,0.00,40.00,6,4,18,3.50
2013-1-10,65,63,60,63,60,58,94,91,83,0.00,40.00,10,5,18,4.64
2013-1-11,74,62,48,64,52,46,93,74,40,0.00,40.00,6,3,12,0.03
2013-1-12,75,72,67,69,66,64,94,84,69,0.00,40.00,12,8,24,0.12
2013-1-13,72,54,42,66,50,35,90,85,75,0.00,40.00,11,6,24,0.80
2013-1-14,42,37,33,35,32,30,89,83,75,0.00,40.00,10,6,19,0.29
2013-1-15,34,34,33,31,30,29,90,88,85,0.00,40.00,7,4,14,0.22
2013-1-16,37,34,32,35,31,29,91,88,79,0.00,40.00,5,3,12,0.19
2013-1-17,58,42,30,36,30,25,92,68,34,0.00,40.00,6,3,16,0.02
2013-1-18,60,42,31,34,28,14,91,65,17,0.00,40.00,5,2,11,0.01
2013-1-19,63,44,31,40,34,28,90,72,34,0.00,40.00,7,1,13,0.00
2013-1-20,68,49,35,48,38,33,92,70,34,0.00,40.00,5,1,9,0.00
2013-1-21,67,49,39,50,39,31,92,71,47,0.00,40.00,8,3,16,0.00
2013-1-22,66,49,36,40,33,26,83,56,38,0.00,40.00,6,3,11,0.00
2013-1-23,74,56,41,51,44,37,92,68,36,0.00,40.00,9,4,17,0.00
2013-1-24,72,61,53,60,56,51,92,82,65,0.00,40.00,9,4,16,0.00
2013-1-25,76,64,56,59,55,50,92,74,45,0.00,40.00,10,5,20,0.00
2013-1-26,66,56,51,55,51,48,91,82,64,0.00,40.00,5,4,10,0.00
2013-1-27,75,61,46,59,52,44,93,75,50,0.00,40.00,10,6,20,0.00
2013-1-28,73,68,64,63,60,58,87,78,66,0.00,40.00,9,6,18,0.00
2013-1-29,75,70,66,68,64,62,88,82,67,0.00,40.00,14,10,29,0.33
2013-1-30,72,52,35,65,37,25,91,60,36,0.00,40.00,14,7,34,0.50
2013-1-31,62,54,33,32,24,18,86,36,18,0.00,40.00,8,5,17,0.00
2013-2-1,59,48,40,34,28,19,72,50,24,0.00,40.00,9,4,18,0.00
2013-2-2,72,53,36,48,40,28,79,61,36,0.00,40.00,9,4,21,0.00
2013-2-3,70,52,37,46,36,24,91,62,18,0.00,40.00,5,1,11,0.00
2013-2-4,60,52,44,50,43,34,86,71,52,0.00,40.00,5,2,11,0.00
2013-2-5,67,57,51,57,53,47,93,86,68,0.00,40.00,4,2,9,0.01
2013-2-6,64,56,49,59,54,47,93,90,78,0.00,40.00,6,3,12,0.20
2013-2-7,69,60,54,58,55,52,94,83,60,0.00,40.00,5,2,10,0.13
2013-2-8,60,56,45,57,50,39,91,81,63,0.00,40.00,7,3,19,0.00
2013-2-9,63,52,39,55,44,36,91,78,60,0.00,40.00,8,5,17,0.00
2013-2-10,71,64,61,66,60,55,94,88,82,0.00,40.00,9,5,28,2.04
2013-2-11,61,53,50,59,50,47,94,88,77,0.00,40.00,8,4,16,0.67
2013-2-12,54,52,49,52,49,46,92,91,88,0.00,40.00,8,4,14,1.00
2013-2-13,57,48,36,47,39,34,91,71,46,0.00,40.00,8,4,18,0.01
2013-2-14,64,46,31,41,34,29,92,69,30,0.00,40.00,4,1,14,0.00
2013-2-15,63,48,36,38,35,29,92,65,29,0.00,40.00,6,3,18,0.00
2013-2-16,55,43,32,29,21,15,80,44,23,0.00,40.00,10,4,27,0.00
2013-2-17,66,50,32,42,31,18,79,50,32,0.00,40.00,10,6,18,0.00
2013-2-18,67,58,49,60,49,38,91,72,55,0.00,40.00,13,8,28,1.10
2013-2-19,62,52,43,54,36,26,90,58,26,0.00,40.00,7,4,17,0.32
2013-2-20,56,49,43,34,27,21,66,44,26,0.00,40.00,11,6,21,0.00
2013-2-21,65,57,49,63,46,27,92,69,38,0.00,40.00,12,6,31,0.91
2013-2-22,60,53,48,51,46,43,87,76,53,0.00,40.00,6,4,13,0.01
2013-2-23,65,52,43,44,40,37,87,68,42,0.00,40.00,6,4,12,0.01
2013-2-24,69,53,38,43,37,33,87,59,28,0.00,40.00,8,4,13,0.00
2013-2-25,69,60,50,62,52,28,91,76,41,0.00,40.00,15,5,31,0.36
2013-2-26,58,48,38,37,31,28,89,55,36,0.00,40.00,16,9,32,0.15
2013-2-27,66,50,35,40,34,25,91,59,31,0.00,40.00,7,2,16,0.00
2013-2-28,59,46,35,30,25,19,80,45,21,0.00,40.00,7,4,15,0.00
2013-3-1,56,43,33,30,28,23,82,58,28,0.00,40.00,8,3,21,0.00
2013-3-2,50,39,32,29,23,18,81,55,30,0.00,40.00,6,3,17,0.00
2013-3-3,60,44,27,29,24,19,86,52,21,0.00,40.00,7,4,14,0.00
2013-3-4,74,60,44,56,46,29,81,62,42,0.00,40.00,15,9,32,0.00
2013-3-5,68,62,47,58,40,18,85,50,20,0.00,40.00,11,6,24,0.00
2013-3-6,65,50,38,29,20,14,57,34,14,0.00,40.00,6,3,15,0.00
2013-3-7,67,49,32,32,28,23,85,50,19,0.00,40.00,6,2,10,0.00
2013-3-8,72,55,36,40,34,31,87,52,23,0.00,40.00,5,3,15,0.00
2013-3-9,71,62,52,57,50,40,78,68,51,0.00,40.00,11,5,21,0.00
2013-3-10,69,59,52,60,54,43,92,85,70,0.00,40.00,13,4,26,0.13
2013-3-11,58,48,37,43,31,27,85,53,31,0.00,40.00,9,4,28,0.02
2013-3-12,68,48,32,36,29,21,90,57,19,0.00,40.00,6,2,38,0.00
2013-3-13,69,53,38,35,28,19,83,45,16,0.00,40.00,7,3,20,0.00
2013-3-14,73,54,35,36,30,25,85,46,19,0.00,40.00,7,3,14,0.00
2013-3-15,79,62,46,54,43,36,82,53,24,0.00,40.00,10,6,23,0.00
2013-3-16,79,66,55,55,52,47,91,64,33,0.00,40.00,10,7,26,0.00
2013-3-17,78,66,57,62,58,54,92,75,49,0.00,40.00,11,6,41,0.00
2013-3-18,86,73,63,63,60,45,90,69,42,0.00,40.00,11,6,52,0.00
2013-3-19,74,62,49,46,36,30,76,45,20,0.00,40.00,8,6,25,0.00
2013-3-20,71,57,47,44,32,18,87,45,14,0.00,40.00,7,4,31,0.14
2013-3-21,65,53,42,36,30,27,65,43,26,0.00,40.00,9,3,38,0.07
2013-3-22,78,64,56,64,54,36,81,70,40,0.00,40.00,7,5,15,0.00
2013-3-23,73,63,57,62,56,52,86,78,68,0.00,40.00,6,4,17,0.00
2013-3-24,58,53,40,52,38,25,89,60,30,0.00,40.00,14,6,34,0.00
2013-3-25,58,45,33,27,18,10,67,39,15,0.00,40.00,10,4,28,0.00
2013-3-26,57,42,26,26,19,15,84,44,20,0.00,40.00,6,2,19,0.00
2013-3-27,66,47,32,28,24,18,79,48,16,0.00,40.00,7,3,13,0.00
2013-3-28,71,64,54,37,30,26,49,30,19,0.00,40.00,7,4,14,0.00
2013-3-29,79,64,53,52,46,33,89,56,22,0.00,40.00,10,5,162,0.00
2013-3-30,75,65,57,60,54,-100,90,72,48,0.00,40.00,9,5,19,0.13
2013-3-31,71,63,55,62,58,53,92,86,71,0.00,40.00,8,4,67,1.01
2013-4-1,78,63,54,59,51,45,94,71,31,0.00,40.00,6,2,19,0.01
2013-4-2,79,66,54,55,50,47,80,59,36,0.00,40.00,8,5,18,0.00
2013-4-3,62,49,45,47,44,42,90,83,58,0.00,40.00,9,6,23,0.62
2013-4-4,49,46,44,43,42,41,91,86,75,0.00,40.00,6,4,14,0.03
2013-4-5,73,55,41,42,40,34,91,61,24,0.00,40.00,6,3,19,0.01
2013-4-6,73,59,44,51,46,41,90,64,39,0.00,40.00,11,5,21,0.00
2013-4-7,78,66,57,57,54,51,85,66,41,0.00,40.00,10,6,20,0.00
2013-4-8,78,70,63,62,59,55,87,69,49,0.00,40.00,12,8,22,0.00
2013-4-9,82,74,67,68,65,59,86,74,61,0.00,40.00,16,9,29,0.00
2013-4-10,82,76,58,68,67,53,83,73,60,0.00,40.00,12,9,27,0.13
2013-4-11,63,52,46,53,46,43,91,81,48,0.00,40.00,9,4,171,2.01
2013-4-12,76,57,40,48,41,36,92,64,24,0.00,40.00,7,2,171,0.02
2013-4-13,80,63,47,49,44,40,88,57,25,0.00,40.00,7,3,127,0.00
2013-4-14,77,65,58,62,56,46,88,74,51,0.00,40.00,7,3,17,0.01
2013-4-15,86,74,64,69,63,60,92,72,48,0.00,40.00,9,6,19,0.01
2013-4-16,80,76,74,71,70,69,90,81,71,0.00,40.00,8,6,15,0.00
2013-4-17,86,78,72,70,68,66,88,72,55,0.00,40.00,11,6,21,0.00
2013-4-18,81,70,49,68,62,44,89,76,63,0.00,40.00,14,8,26,0.51
2013-4-19,62,51,43,44,35,28,84,58,30,0.00,40.00,8,5,41,0.36
2013-4-20,70,54,37,42,35,28,90,56,24,0.00,40.00,8,3,18,0.00
2013-4-21,74,60,45,43,38,32,85,51,23,0.00,40.00,7,4,17,0.00
2013-4-22,79,63,45,50,44,41,87,56,27,0.00,40.00,7,2,14,0.00
2013-4-23,83,72,62,64,60,47,87,67,48,0.00,40.00,13,6,33,0.00
2013-4-24,71,58,47,66,51,43,90,79,58,0.00,40.00,8,5,23,1.35
2013-4-25,70,57,47,46,40,33,88,58,25,0.00,40.00,13,5,42,0.01
2013-4-26,77,65,51,64,54,43,83,68,52,0.00,40.00,5,3,45,0.00
2013-4-27,80,73,67,66,63,57,91,72,52,0.00,40.00,10,6,18,0.00
2013-4-28,83,71,64,65,63,58,92,76,42,0.00,40.00,7,4,15,0.00
2013-4-29,85,70,61,67,58,45,94,72,25,0.00,40.00,4,2,12,0.00
2013-4-30,77,69,58,67,62,55,91,79,64,0.00,40.00,5,3,12,0.12
2013-5-1,82,70,65,65,62,60,93,80,47,0.00,40.00,7,3,14,0.36
2013-5-2,70,66,57,63,61,54,92,86,76,0.00,40.00,10,4,20,0.08
2013-5-3,60,50,42,54,42,37,91,75,44,0.00,40.00,8,5,28,0.09
2013-5-4,75,57,37,42,36,30,92,54,21,0.00,40.00,12,5,30,0.01
2013-5-5,67,55,41,45,37,32,89,54,33,0.00,40.00,8,3,107,0.00
2013-5-6,77,59,43,54,46,40,91,67,34,0.00,40.00,9,3,19,0.00
2013-5-7,82,68,53,57,52,47,91,63,30,0.00,40.00,8,2,16,0.00
2013-5-8,83,70,54,59,56,51,92,65,40,0.00,40.00,7,3,14,0.00
2013-5-9,81,70,63,67,63,56,92,79,57,0.00,40.00,7,4,15,0.22
2013-5-10,77,69,65,67,60,-100,92,80,63,0.00,40.00,10,4,24,2.31
2013-5-11,81,71,62,63,60,-100,92,72,45,0.00,40.00,5,2,12,0.01
2013-5-12,75,64,53,58,51,46,93,66,38,0.00,40.00,8,3,18,0.00
2013-5-13,81,64,47,53,45,38,91,58,24,0.00,40.00,6,3,12,0.00
2013-5-14,85,70,54,58,50,47,90,55,27,0.00,40.00,8,4,16,0.00
2013-5-15,81,70,60,63,58,51,88,68,45,0.00,40.00,9,4,17,0.00
2013-5-16,82,68,65,66,42,-100,89,72,55,0.00,40.00,10,6,20,0.00
2013-5-17,86,76,69,70,60,-100,88,72,55,0.00,40.00,9,6,16,0.00
2013-5-18,88,80,73,69,68,66,84,68,50,0.00,40.00,8,6,17,0.00
2013-5-19,89,80,72,69,67,63,86,67,43,0.00,40.00,11,7,20,0.00
2013-5-20,89,81,76,71,69,68,81,68,50,0.00,40.00,12,7,22,0.00
2013-5-21,89,80,66,71,69,63,90,71,48,0.00,40.00,10,6,22,0.17
2013-5-22,84,73,65,71,66,62,91,79,59,0.00,40.00,8,4,23,0.20
2013-5-23,90,78,69,72,68,60,96,73,48,0.00,40.00,7,3,17,0.01
2013-5-24,87,76,65,69,65,62,91,70,53,0.00,40.00,8,3,17,0.00
2013-5-25,86,76,68,68,63,57,82,64,46,0.00,40.00,6,3,12,0.00
2013-5-26,85,77,70,67,64,60,86,65,45,0.00,40.00,5,3,9,0.00
2013-5-27,88,78,70,69,65,59,89,66,38,0.00,40.00,10,5,18,0.00
2013-5-28,87,78,70,68,64,60,91,66,40,0.00,40.00,10,6,18,0.00
2013-5-29,88,78,68,71,67,64,89,70,46,0.00,40.00,9,5,16,0.05
2013-5-30,87,79,73,74,70,68,90,76,56,0.00,40.00,10,5,24,0.27
2013-5-31,89,80,74,73,71,68,87,74,55,0.00,40.00,10,6,19,0.03
2013-6-1,90,82,77,75,70,-100,85,72,54,0.00,40.00,9,6,18,0.03
2013-6-2,85,77,69,72,68,65,92,76,56,0.00,40.00,6,4,18,1.19
2013-6-3,87,76,68,69,66,62,92,73,46,0.00,40.00,7,3,12,0.01
2013-6-4,92,79,67,72,66,62,86,67,42,0.00,40.00,5,3,9,0.01
2013-6-5,93,83,72,73,70,68,91,68,45,0.00,40.00,5,2,9,0.00
2013-6-6,81,74,69,73,68,64,91,80,60,0.00,40.00,8,3,15,0.69
2013-6-7,85,75,68,68,67,65,92,77,52,0.00,40.00,5,2,12,0.07
2013-6-8,87,75,66,68,65,63,92,74,46,0.00,40.00,6,3,16,0.00
2013-6-9,90,76,67,71,67,63,91,77,49,0.00,40.00,6,3,20,0.03
2013-6-10,92,80,65,72,68,63,93,69,45,0.00,40.00,6,4,18,0.03
2013-6-11,94,83,71,76,72,68,94,72,45,0.00,40.00,6,3,12,0.00
2013-6-12,93,83,73,75,71,67,93,70,43,0.00,40.00,7,3,13,0.00
2013-6-13,94,83,73,76,72,69,93,72,44,0.00,40.00,7,3,14,0.00
2013-6-14,93,83,71,75,71,63,91,69,51,0.00,40.00,6,3,13,0.00
2013-6-15,92,79,66,70,65,62,86,65,41,0.00,40.00,5,2,10,0.00
2013-6-16,93,82,74,73,70,67,87,68,45,0.00,40.00,9,3,14,0.00
2013-6-17,93,83,73,74,71,68,92,70,46,0.00,40.00,10,4,17,0.00
2013-6-18,88,77,72,74,71,67,92,81,63,0.00,40.00,8,4,16,0.55
2013-6-19,84,76,71,73,70,69,94,82,64,0.00,40.00,6,2,14,0.52
2013-6-20,92,78,69,74,70,67,93,78,49,0.00,40.00,6,2,13,0.01
2013-6-22,92,86,79,74,70,68,79,60,47,0.00,40.00,5,3,11,0.00
2013-6-23,93,82,71,72,69,65,92,67,40,0.00,40.00,6,3,13,0.00
2013-6-24,91,81,74,73,71,69,91,74,50,0.00,40.00,7,4,20,0.10
2013-6-25,91,82,72,74,71,68,92,71,48,0.00,40.00,6,4,13,0.01
2013-6-26,93,84,74,74,72,67,91,69,43,0.00,40.00,8,4,15,0.00
2013-6-27,96,84,73,75,71,66,92,68,39,0.00,40.00,8,3,15,0.00
2013-6-28,94,84,73,74,71,68,90,66,47,0.00,40.00,9,4,17,0.00
2013-6-29,96,84,71,74,69,61,89,64,35,0.00,40.00,5,3,14,0.10
2013-6-30,91,79,64,67,60,53,90,57,28,0.00,40.00,7,2,19,0.01
2013-7-1,88,76,63,63,60,57,90,61,35,0.00,40.00,6,2,15,0.00
2013-7-2,89,76,64,63,60,54,90,62,32,0.00,40.00,5,2,13,0.00
2013-7-3,90,77,64,62,58,54,87,58,31,0.00,40.00,6,3,13,0.00
2013-7-4,90,77,65,65,59,53,84,58,29,0.00,40.00,6,2,14,0.00
2013-7-5,93,79,65,67,60,53,80,57,26,0.00,40.00,9,3,22,0.00
2013-7-6,91,78,68,70,67,63,92,72,41,0.00,40.00,6,3,12,0.00
2013-7-7,91,80,73,73,71,69,90,76,50,0.00,40.00,7,4,16,0.01
2013-7-8,94,78,72,72,68,-100,92,75,39,0.00,40.00,9,3,17,0.01
2013-7-9,96,82,74,75,71,65,93,71,37,0.00,40.00,6,4,11,0.00
2013-7-10,96,85,74,73,68,-100,91,62,37,0.00,40.00,7,4,17,0.00
2013-7-11,91,81,75,73,70,66,88,72,48,0.00,40.00,9,4,19,0.00
2013-7-12,96,82,70,70,67,58,90,63,36,0.00,40.00,7,2,15,0.00
2013-7-13,92,80,63,63,59,55,86,53,29,0.00,40.00,7,3,13,0.00
2013-7-14,88,76,67,69,64,62,86,67,45,0.00,40.00,5,2,13,0.00
2013-7-15,92,77,68,71,67,64,90,73,43,0.00,40.00,13,3,21,0.00
2013-7-16,92,85,78,70,68,66,75,57,42,0.00,40.00,10,6,20,0.00
2013-7-17,95,82,73,72,69,63,91,68,35,0.00,40.00,6,4,14,0.00
2013-7-18,94,78,69,70,68,64,90,75,37,0.00,40.00,8,2,26,0.14
2013-7-19,93,78,68,70,67,63,92,74,38,0.00,40.00,6,2,17,0.16
2013-7-20,94,79,68,71,66,62,92,69,35,0.00,40.00,8,2,18,0.15
2013-7-21,88,78,70,74,70,66,91,76,52,0.00,40.00,9,4,19,0.13
2013-7-22,95,82,74,75,71,67,90,72,40,0.00,40.00,11,5,21,0.08
2013-7-23,96,85,77,74,70,64,88,65,36,0.00,40.00,11,6,22,0.00
2013-7-24,92,81,73,73,70,67,92,73,44,0.00,40.00,11,5,20,0.29
2013-7-25,94,81,70,74,69,64,93,70,38,0.00,40.00,5,2,11,0.27
2013-7-26,92,82,71,71,68,65,87,64,46,0.00,40.00,6,3,14,0.00
2013-7-27,85,78,72,74,71,69,90,79,62,0.00,40.00,8,4,23,2.79
2013-7-28,92,80,69,70,68,66,92,70,43,0.00,40.00,5,3,11,0.01
2013-7-29,94,82,71,73,69,65,90,68,39,0.00,40.00,6,2,11,0.00
2013-7-30,94,82,70,73,69,60,91,68,33,0.00,40.00,7,3,12,0.00
2013-7-31,96,84,73,73,69,62,90,64,33,0.00,40.00,8,4,15,0.00
2013-8-1,95,83,75,76,73,70,89,73,48,0.00,40.00,6,2,13,0.06
2013-8-2,97,86,73,76,72,69,92,67,40,0.00,40.00,4,2,10,0.02
2013-8-3,95,84,75,75,72,70,89,69,45,0.00,40.00,8,3,12,0.00
2013-8-4,96,86,73,76,71,66,91,65,38,0.00,40.00,6,3,11,0.00
2013-8-5,98,85,74,75,71,66,91,65,37,0.00,40.00,8,4,14,0.00
2013-8-6,99,87,76,74,69,64,88,59,32,0.00,40.00,8,4,14,0.00
2013-8-7,98,86,78,75,70,63,89,64,32,0.00,40.00,7,4,12,0.00
2013-8-8,99,83,76,74,70,58,90,67,27,0.00,40.00,6,3,13,0.00
2013-8-9,98,85,73,73,70,68,87,63,40,0.00,40.00,7,3,12,0.00
2013-8-10,96,82,75,75,72,68,91,74,42,0.00,40.00,12,3,20,0.21
2013-8-11,93,81,73,75,72,69,92,76,46,0.00,40.00,8,2,13,0.74
2013-8-12,88,81,73,75,72,70,92,76,60,0.00,40.00,7,4,13,0.15
2013-8-13,96,82,73,75,72,68,90,75,41,0.00,40.00,10,5,22,0.78
2013-8-14,86,77,72,74,71,67,91,82,64,0.00,40.00,8,2,17,2.05
2013-8-15,88,71,68,67,53,-100,82,63,40,0.00,40.00,6,3,11,0.01
2013-8-16,87,75,65,65,60,-100,86,65,41,0.00,40.00,5,3,14,0.00
2013-8-17,88,75,65,69,62,-100,87,69,44,0.00,40.00,6,3,17,0.00
2013-8-18,90,78,68,67,65,62,90,68,40,0.00,40.00,8,3,16,0.00
2013-8-19,88,74,67,69,59,-100,91,75,45,0.00,40.00,8,2,13,0.00
2013-8-20,91,76,67,71,66,-100,91,76,42,0.00,40.00,7,2,19,0.01
2013-8-21,92,78,71,72,69,67,90,75,47,0.00,40.00,5,2,13,0.01
2013-8-22,93,82,70,73,69,66,90,67,42,0.00,40.00,5,2,11,0.00
2013-8-23,93,81,72,75,70,66,91,73,42,0.00,40.00,7,2,14,0.00
2013-8-24,92,81,71,72,68,-100,91,68,45,0.00,40.00,9,4,17,0.00
2013-8-25,92,80,71,71,69,66,90,70,43,0.00,40.00,9,4,18,0.00
2013-8-26,91,79,72,71,69,67,90,73,47,0.00,40.00,6,4,15,0.00
2013-8-27,91,76,70,71,67,62,91,78,40,0.00,40.00,6,1,9,0.00
2013-8-28,94,88,74,66,63,61,75,45,35,0.00,40.00,6,4,13,0.00
2013-8-29,93,80,67,71,64,60,90,63,35,0.00,40.00,5,2,14,0.00
2013-8-30,95,82,69,71,65,61,90,61,34,0.00,40.00,5,2,11,0.00
2013-8-31,96,82,70,72,65,-100,90,62,35,0.00,40.00,6,3,12,0.00
2013-9-1,97,83,70,70,66,61,89,61,32,0.00,40.00,8,4,15,0.00
2013-9-2,98,84,74,73,69,64,89,64,33,0.00,40.00,9,4,16,0.11
2013-9-3,98,84,75,74,70,64,87,68,35,0.00,40.00,6,3,18,0.02
2013-9-4,95,82,71,74,70,66,91,69,39,0.00,40.00,6,2,14,0.06
2013-9-5,98,83,71,72,67,60,90,64,30,0.00,40.00,4,2,11,0.00
2013-9-6,96,81,70,71,67,63,90,66,36,0.00,40.00,5,2,11,0.00
2013-9-7,97,81,70,72,65,-100,91,65,29,0.00,40.00,6,2,11,0.00
2013-9-8,95,80,68,69,65,59,90,63,30,0.00,40.00,5,2,12,0.00
2013-9-9,95,80,67,71,63,60,91,62,31,0.00,40.00,7,2,16,0.00
2013-9-10,95,82,68,69,64,61,86,58,33,0.00,40.00,5,2,13,0.00
2013-9-11,94,82,71,70,65,60,88,60,32,0.00,40.00,7,3,14,0.00
2013-9-12,96,81,69,70,63,58,89,60,28,0.00,40.00,6,2,11,0.00
2013-9-13,97,80,71,69,64,59,85,62,29,0.00,40.00,7,3,14,0.03
2013-9-14,90,77,67,69,57,-100,85,53,31,0.00,40.00,7,4,13,0.02
2013-9-15,93,77,64,65,58,51,67,54,34,0.00,40.00,5,3,12,0.00
2013-9-16,96,82,71,69,64,61,84,58,32,0.00,40.00,7,3,16,0.00
2013-9-17,96,83,71,69,64,56,85,56,27,0.00,40.00,7,3,14,0.00
2013-9-18,81,75,72,68,65,62,84,71,58,0.00,40.00,5,1,10,0.00
2013-9-19,94,81,73,73,68,65,90,69,39,0.00,40.00,11,4,24,0.34
2013-9-20,84,76,71,75,72,68,91,86,69,0.00,40.00,9,4,23,2.11
2013-9-21,79,71,66,68,64,-100,91,82,63,0.00,40.00,8,4,16,1.60
2013-9-22,81,68,58,57,52,47,84,60,32,0.00,40.00,8,4,17,0.01
2013-9-23,88,72,58,67,59,53,85,65,42,0.00,40.00,6,4,13,0.00
2013-9-24,88,78,67,74,70,64,91,78,49,0.00,40.00,4,2,9,1.07
2013-9-25,88,74,64,65,59,52,91,67,29,0.00,40.00,6,2,16,0.01
2013-9-26,90,74,60,64,59,50,90,65,26,0.00,40.00,5,1,11,0.01
2013-9-27,89,75,62,65,61,57,90,65,35,0.00,40.00,5,2,9,0.00
2013-9-28,88,77,70,67,63,-100,88,66,44,0.00,40.00,6,3,13,0.00
2013-9-29,75,72,70,70,67,63,90,83,67,0.00,40.00,5,2,9,0.37
2013-9-30,82,74,69,72,68,66,91,83,68,0.00,40.00,5,2,11,0.08
2013-10-1,75,73,71,72,70,68,90,87,84,0.00,40.00,3,2,7,0.24
2013-10-2,84,76,70,72,70,67,91,81,63,0.00,40.00,5,3,12,0.13
2013-10-3,89,78,72,72,69,65,91,75,46,0.00,40.00,7,2,14,0.00
2013-10-4,88,79,75,74,71,68,86,77,54,0.00,40.00,7,4,20,0.06
2013-10-5,86,77,72,74,70,69,91,80,61,0.00,40.00,7,3,12,0.02
2013-10-6,75,68,58,72,54,41,91,65,32,0.00,40.00,6,3,15,0.24
2013-10-7,78,64,51,52,48,45,84,58,33,0.00,40.00,6,2,14,0.01
2013-10-8,76,62,50,55,50,46,90,69,35,0.00,40.00,5,2,10,0.00
2013-10-9,82,64,49,54,50,45,89,66,27,0.00,40.00,4,1,7,0.00
2013-10-10,81,66,54,63,57,51,91,77,47,0.00,40.00,5,2,59,0.00
2013-10-11,85,71,59,68,62,56,91,75,48,0.00,40.00,7,2,13,0.00
2013-10-12,86,73,69,71,66,-100,91,80,57,0.00,40.00,9,3,20,0.81
2013-10-13,82,74,68,69,67,65,91,80,62,0.00,40.00,5,2,12,0.81
2013-10-14,84,74,67,68,65,63,89,76,52,0.00,40.00,5,2,9,0.00
2013-10-15,86,76,69,68,66,63,87,72,49,0.00,40.00,7,3,13,0.00
2013-10-16,81,72,62,69,66,59,90,81,60,0.00,40.00,5,3,12,0.03
2013-10-17,74,63,54,59,56,51,90,79,49,0.00,40.00,5,2,11,0.03
2013-10-18,69,59,51,57,53,48,90,80,54,0.00,40.00,8,2,13,0.01
2013-10-19,69,59,47,57,52,-100,90,78,56,0.00,40.00,5,2,14,0.13
2013-10-20,74,55,43,48,42,33,90,69,26,0.00,40.00,5,1,12,0.01
2013-10-21,73,60,49,59,52,42,90,75,57,0.00,40.00,6,1,13,0.00
2013-10-22,72,61,50,56,53,47,91,78,46,0.00,40.00,5,2,13,0.00
2013-10-23,76,60,48,50,46,41,90,65,29,0.00,40.00,5,2,11,0.00
2013-10-24,83,65,50,54,49,45,85,60,26,0.00,40.00,9,4,15,0.00
2013-10-25,66,56,48,49,39,34,73,54,31,0.00,40.00,8,5,19,0.00
2013-10-26,76,58,44,52,41,-100,80,59,30,0.00,40.00,6,2,11,0.00
2013-10-27,73,64,57,63,56,48,89,74,62,0.00,40.00,7,3,13,0.00
2013-10-28,78,68,61,64,60,-100,91,81,59,0.00,40.00,3,0,8,0.01
2013-10-29,79,71,63,63,61,59,89,74,50,0.00,40.00,7,3,14,0.01
2013-10-30,73,69,65,68,64,61,89,84,77,0.00,40.00,7,4,14,0.34
2013-10-31,74,69,64,70,66,61,90,87,82,0.00,40.00,12,7,27,0.99
2013-11-1,75,62,50,61,51,44,90,72,33,0.00,40.00,5,2,13,0.01
2013-11-2,71,58,48,52,42,-100,90,62,23,0.00,40.00,6,3,16,0.01
2013-11-3,65,51,40,44,40,36,89,69,35,0.00,40.00,7,2,13,0.00
2013-11-4,74,60,46,54,48,41,88,65,44,0.00,40.00,6,3,14,0.00
2013-11-5,77,67,57,62,57,52,85,72,59,0.00,40.00,8,5,142,0.00
2013-11-6,76,68,55,67,62,52,89,81,70,0.00,40.00,7,4,18,0.06
2013-11-7,62,52,43,52,40,35,88,67,37,0.00,40.00,8,4,18,0.03
2013-11-8,65,50,39,44,39,36,89,70,35,0.00,40.00,6,1,14,0.00
2013-11-9,66,52,47,45,42,-100,87,71,40,0.00,40.00,3,1,9,0.00
2013-11-10,72,58,49,49,46,42,86,67,39,0.00,40.00,5,2,17,0.00
2013-11-11,75,57,46,53,47,43,89,73,38,0.00,40.00,5,1,10,0.00
2013-11-12,59,49,36,49,39,23,88,70,50,0.00,40.00,11,4,22,0.00
2013-11-13,53,39,30,28,22,15,75,55,23,0.00,40.00,7,4,17,0.00
2013-11-14,60,43,28,44,32,23,85,69,37,0.00,40.00,6,1,11,0.00
2013-11-15,75,57,45,56,50,41,88,77,49,0.00,40.00,5,2,9,0.03
2013-11-16,77,67,60,67,61,-100,91,83,69,0.00,40.00,10,4,37,0.02
2013-11-17,83,75,70,70,69,65,90,82,64,0.00,40.00,10,6,23,0.05
2013-11-18,75,67,53,70,42,28,89,45,19,0.00,40.00,9,5,20,0.02
2013-11-19,65,54,45,38,28,15,58,41,15,0.00,40.00,9,5,22,0.00
2013-11-20,71,52,39,41,32,27,74,52,19,0.00,40.00,4,1,17,0.00
2013-11-21,72,65,56,64,60,39,91,84,52,0.00,40.00,7,3,14,0.00
2013-11-22,68,65,55,64,62,52,91,89,86,0.00,40.00,8,3,16,0.90
2013-11-23,55,46,40,52,40,-100,90,83,70,0.00,40.00,8,6,21,0.15
2013-11-24,45,39,33,31,23,19,71,53,38,0.00,40.00,10,6,21,0.02
2013-11-25,38,36,34,35,32,25,89,86,61,0.00,40.00,8,4,22,3.68
2013-11-26,40,39,37,36,35,34,90,88,85,0.00,40.00,6,2,22,2.06
2013-11-27,47,37,27,36,26,21,88,68,37,0.00,40.00,3,0,16,0.12
2013-11-28,53,35,25,28,23,18,86,67,28,0.00,40.00,0,0,6,0.00
2013-11-29,61,39,26,32,26,20,86,65,22,0.00,40.00,0,0,7,0.01
2013-11-30,66,44,29,41,29,-100,87,64,19,0.00,40.00,2,0,8,0.01
2013-12-1,69,57,39,48,41,29,83,57,33,0.00,40.00,7,1,12,0.00
2013-12-2,73,62,55,58,53,47,90,73,50,0.00,40.00,7,1,17,0.00
2013-12-3,77,68,59,63,59,56,91,76,53,0.00,40.00,12,6,21,0.00
2013-12-4,80,72,68,67,64,62,87,75,56,0.00,40.00,10,6,20,0.00
2013-12-5,79,66,43,69,61,40,89,84,64,0.00,40.00,7,5,16,0.15
2013-12-6,43,39,35,40,35,29,89,86,80,0.00,40.00,6,4,17,0.28
2013-12-7,35,31,31,30,24,-100,86,77,71,0.00,40.00,8,6,19,0.02
2013-12-8,41,36,30,37,32,26,88,83,73,0.00,40.00,4,1,8,0.03
2013-12-9,40,38,35,37,35,32,89,88,87,0.00,40.00,6,4,15,0.33
2013-12-10,47,37,29,32,28,25,87,71,45,0.00,40.00,7,3,18,0.23
2013-12-11,51,38,28,36,29,24,86,72,44,0.00,40.00,5,1,10,0.01
2013-12-12,54,38,31,30,24,14,81,61,20,0.00,40.00,8,3,15,0.00
2013-12-13,56,46,34,52,33,21,88,61,46,0.00,40.00,7,3,19,0.48
2013-12-14,59,52,42,56,45,-100,90,81,71,0.00,40.00,7,4,19,0.60
2013-12-15,53,41,32,35,30,27,88,66,41,0.00,40.00,6,3,14,0.01
2013-12-16,62,43,30,35,30,26,88,67,26,0.00,40.00,6,1,13,0.00
2013-12-17,69,47,32,40,34,29,89,66,27,0.00,40.00,9,2,17,0.00
2013-12-18,68,51,36,42,37,33,89,63,33,0.00,40.00,8,3,16,0.00
2013-12-19,71,60,46,57,48,36,81,67,49,0.00,40.00,11,6,21,0.00
2013-12-20,75,69,65,65,62,57,86,79,70,0.00,40.00,11,7,22,0.00
2013-12-21,74,67,57,68,62,-100,91,83,78,0.00,40.00,14,9,30,1.38
2013-12-22,60,53,38,55,48,29,91,84,69,0.00,40.00,6,2,15,0.52
2013-12-23,47,38,29,29,27,25,86,66,43,0.00,40.00,6,2,20,0.02
2013-12-24,51,37,27,31,26,23,86,69,39,0.00,40.00,6,1,13,0.00
2013-12-25,57,39,27,34,28,23,86,67,30,0.00,40.00,0,0,7,0.00
2013-12-26,59,43,31,35,31,28,88,67,36,0.00,40.00,2,0,10,0.00
2013-12-27,53,44,37,37,32,27,80,64,36,0.00,40.00,0,0,11,0.00
2013-12-28,51,44,39,39,34,-100,88,69,61,0.00,40.00,0,0,5,0.00
2013-12-29,62,46,32,42,35,29,89,70,31,0.00,40.00,3,0,8,0.00
2013-12-30,49,45,41,41,37,33,85,73,61,0.00,40.00,4,1,12,0.00
2013-12-31,45,40,37,33,30,27,80,68,49,0.00,40.00,4,1,11,0.00
2014-1-1,61,48,36,51,40,30,89,74,49,0.00,40.00,7,2,14,0.17
2014-1-2,57,46,29,53,31,16,90,58,24,0.00,40.00,8,4,23,0.20